Location: Lombard
(41.8800°N, 88.0080°W)
Time: 23:37:49
(UTC-05:00)

Tiros 1 - Pass Details

Date: 29 January 2023
Orbit: 628 x 662 km, 48.4° (Epoch: 20 March)

Event Time Altitude Azimuth Distance (km) Brightness Sun altitude
Rises 07:29:16 0° 297° (WNW) 2,952 9.8 2.8°
Reaches altitude 10° 07:31:36 10° 297° (WNW) 2,046 9.1 3.2°
Maximum altitude 07:36:19 84° 211° (SSW) 659 7.3 4.0°
Drops below altitude 10° 07:41:05 10° 122° (ESE) 2,059 12.7 4.8°
Sets 07:43:26 0° 122° (ESE) 2,973 13.6 5.1°
